Temp
-12 -12 -11 -10 -10 -10 -9 -9 -9 -10 -10 -10 -10 -10 -10 -11 -11 -11 -11 -11 -11 -11 -12 -12 -12 -12 -12 -12 -12 -13 -13 -12 -12 -13 -13 -12 -13 -13 -13 -13 -13 -13 -13 -13 -13 -13 -13 -13 -13
-12 -12 -12 -11 -11 -10 -11 -11 -10 -10 -10 -10 -11 -10 -10 -11 -11 -11 -11 -11 -11 -11 -11 -12 -12 -12 -12 -12 -13 -13 -12 -12 -13 -13 -13 -13 -13 -13 -13 -13 -13 -13 -13 -13 -13 -13 -14 -14 -14
-13 -13 -13 -12 -11 -11 -11 -12 -13 -11 -11 -11 -11 -11 -10 -10 -10 -11 -10 -11 -12 -12 -12 -12 -12 -12 -12 -13 -12 -12 -12 -13 -13 -13 -13 -13 -13 -13 -13 -13 -13 -13 -14 -14 -14 -14 -14 -14 -14
-13 -13 -13 -12 -12 -11 -12 -13 -13 -12 -12 -12 -11 -11 -11 -10 -11 -11 -12 -12 -12 -12 -12 -12 -12 -12 -12 -12 -12 -12 -12 -13 -13 -13 -13 -13 -13 -13 -13 -13 -14 -14 -14 -14 -14 -14 -14 -14 -14
-13 -13 -13 -13 -12 -12 -13 -13 -13 -12 -11 -11 -10 -10 -10 -10 -11 -11 -12 -12 -13 -13 -12 -12 -13 -12 -12 -12 -12 -12 -13 -13 -13 -13 -13 -13 -13 -13 -14 -14 -14 -14 -14 -14 -14 -14 -14 -14 -15
-14 -13 -13 -13 -14 -13 -13 -14 -12 -12 -12 -12 -12 -11 -11 -12 -12 -12 -12 -13 -13 -13 -13 -13 -13 -12 -12 -12 -13 -13 -13 -13 -13 -13 -13 -13 -14 -14 -14 -14 -14 -14 -14 -15 -15 -15 -15 -15 -15
-15 -14 -14 -13 -14 -14 -14 -14 -13 -13 -13 -12 -12 -12 -12 -12 -12 -12 -13 -13 -13 -13 -13 -13 -12 -12 -12 -13 -13 -13 -13 -13 -13 -13 -14 -14 -14 -14 -14 -15 -15 -15 -15 -15 -15 -15 -15 -15 -15
-14 -15 -15 -15 -15 -14 -14 -13 -12 -12 -12 -12 -13 -13 -12 -12 -12 -12 -13 -13 -13 -13 -13 -12 -12 -12 -12 -13 -13 -13 -13 -13 -13 -13 -14 -14 -14 -14 -15 -15 -15 -15 -15 -15 -15 -15 -15 -14 -15
-15 -15 -15 -14 -12 -14 -15 -13 -13 -13 -12 -13 -14 -13 -13 -13 -12 -13 -13 -13 -13 -13 -12 -12 -12 -12 -13 -13 -13 -13 -13 -13 -13 -14 -14 -14 -14 -14 -14 -15 -15 -15 -15 -15 -15 -15 -15 -15 -14
-16 -15 -15 -15 -14 -13 -13 -13 -13 -14 -14 -13 -13 -13 -13 -13 -13 -13 -13 -13 -12 -12 -12 -12 -13 -13 -13 -13 -13 -13 -13 -14 -14 -14 -14 -15 -14 -14 -15 -15 -15 -15 -15 -15 -15 -15 -15 -15 -15
-15 -15 -15 -14 -14 -13 -13 -13 -14 -14 -14 -13 -13 -13 -13 -13 -13 -13 -13 -13 -12 -12 -12 -13 -13 -13 -13 -13 -13 -13 -14 -14 -14 -14 -15 -15 -15 -15 -15 -15 -15 -15 -15 -15 -15 -15 -15 -15 -15
-15 -15 -14 -14 -14 -15 -14 -15 -14 -14 -14 -13 -14 -13 -13 -13 -13 -13 -13 -12 -12 -13 -13 -13 -13 -13 -13 -13 -14 -14 -14 -14 -14 -15 -15 -15 -16 -15 -15 -15 -15 -15 -15 -15 -15 -15 -15 -15 -15
-15 -15 -14 -15 -15 -15 -15 -15 -14 -14 -14 -14 -14 -13 -13 -13 -12 -13 -13 -13 -13 -13 -13 -13 -13 -13 -14 -14 -14 -14 -14 -15 -15 -16 -16 -16 -16 -16 -15 -15 -15 -15 -15 -15 -15 -15 -15 -16 -16
-17 -16 -16 -15 -16 -15 -15 -15 -15 -15 -14 -14 -14 -13 -13 -13 -13 -14 -14 -13 -13 -13 -13 -13 -13 -14 -14 -14 -14 -14 -15 -15 -15 -16 -16 -16 -16 -16 -16 -15 -15 -15 -15 -15 -15 -15 -15 -15 -16
-16 -16 -16 -16 -15 -15 -15 -15 -15 -15 -14 -14 -14 -13 -13 -13 -14 -14 -14 -13 -14 -14 -14 -14 -14 -15 -14 -15 -14 -14 -15 -15 -16 -16 -16 -16 -16 -15 -15 -15 -15 -16 -16 -16 -16 -16 -16 -16 -16
-16 -15 -15 -15 -15 -15 -14 -14 -14 -14 -14 -14 -14 -13 -13 -13 -14 -14 -14 -14 -14 -14 -14 -14 -14 -14 -14 -14 -14 -14 -15 -15 -15 -16 -16 -16 -15 -16 -16 -16 -16 -16 -16 -16 -16 -16 -16 -16 -16
-16 -15 -14 -14 -15 -14 -14 -14 -14 -14 -14 -14 -14 -13 -13 -13 -14 -14 -14 -14 -14 -14 -14 -14 -14 -14 -14 -14 -14 -15 -15 -15 -15 -16 -16 -16 -16 -16 -16 -16 -16 -16 -17 -17 -17 -16 -16 -16 -16
-16 -15 -15 -15 -14 -14 -14 -14 -14 -14 -15 -14 -14 -13 -13 -13 -13 -13 -13 -13 -13 -13 -13 -13 -14 -14 -14 -14 -15 -15 -16 -16 -16 -17 -16 -16 -16 -16 -17 -16 -17 -17 -17 -17 -16 -16 -16 -16 -16
-15 -15 -15 -14 -14 -14 -14 -15 -14 -14 -14 -14 -14 -14 -13 -13 -14 -14 -14 -14 -14 -14 -14 -13 -14 -14 -15 -15 -15 -15 -15 -15 -16 -16 -17 -17 -17 -17 -17 -17 -17 -17 -17 -17 -17 -17 -17 -17 -16
-15 -15 -16 -15 -15 -15 -14 -14 -14 -14 -14 -14 -14 -14 -14 -14 -14 -15 -15 -15 -14 -14 -14 -14 -15 -15 -15 -16 -15 -16 -16 -16 -17 -17 -17 -17 -17 -17 -17 -17 -17 -17 -17 -17 -17 -17 -17 -17 -17
-16 -16 -15 -15 -15 -15 -15 -14 -14 -14 -14 -14 -14 -14 -14 -15 -15 -15 -15 -15 -15 -15 -15 -15 -15 -16 -16 -16 -16 -16 -16 -17 -17 -17 -17 -17 -18 -18 -18 -18 -18 -18 -18 -18 -18 -18 -18 -18 -18
-15 -15 -15 -15 -15 -15 -15 -14 -14 -14 -14 -14 -14 -15 -14 -15 -15 -14 -15 -15 -15 -15 -15 -16 -17 -17 -16 -16 -17 -17 -17 -17 -18 -18 -18 -18 -18 -19 -19 -19 -18 -18 -18 -18 -18 -18 -18 -18 -19
-15 -15 -15 -15 -15 -15 -14 -14 -14 -14 -14 -15 -15 -15 -15 -15 -15 -15 -15 -16 -16 -16 -16 -16 -16 -16 -17 -17 -18 -17 -18 -18 -18 -18 -18 -18 -18 -18 -18 -18 -18 -17 -17 -18 -18 -19 -19 -19 -20
-15 -15 -15 -15 -14 -14 -14 -14 -14 -14 -14 -14 -15 -15 -15 -15 -15 -16 -15 -16 -16 -16 -16 -17 -17 -17 -18 -18 -18 -18 -19 -18 -18 -18 -18 -18 -18 -17 -17 -17 -17 -18 -18 -18 -19 -19 -20 -20 -21
-15 -15 -15 -15 -14 -14 -14 -14 -14 -14 -14 -14 -15 -15 -15 -15 -15 -16 -16 -16 -16 -16 -16 -16 -16 -18 -18 -18 -18 -19 -18 -18 -18 -18 -17 -17 -17 -17 -17 -17 -18 -18 -19 -19 -20 -21 -21 -22 -23
-15 -15 -15 -14 -14 -14 -14 -14 -14 -14 -14 -14 -15 -15 -15 -15 -16 -16 -17 -16 -17 -17 -17 -17 -18 -18 -19 -18 -18 -18 -17 -17 -17 -17 -17 -18 -18 -18 -18 -18 -19 -19 -20 -21 -22 -22 -23 -24 -24
-15 -15 -15 -15 -14 -14 -14 -14 -14 -14 -14 -14 -14 -14 -15 -15 -15 -15 -16 -16 -16 -17 -17 -18 -18 -18 -17 -17 -17 -17 -17 -17 -17 -18 -18 -18 -18 -19 -19 -19 -20 -21 -22 -22 -23 -24 -24 -25 -26
-15 -15 -15 -15 -14 -14 -14 -14 -14 -14 -14 -14 -14 -14 -14 -15 -15 -15 -16 -16 -17 -17 -17 -17 -18 -17 -18 -18 -18 -18 -18 -18 -18 -18 -18 -19 -19 -19 -20 -20 -21 -22 -22 -23 -24 -25 -26 -28 -30
-15 -15 -15 -15 -15 -14 -14 -14 -14 -14 -14 -14 -14 -14 -14 -15 -15 -16 -16 -17 -17 -17 -18 -18 -18 -18 -18 -18 -18 -18 -18 -18 -18 -19 -19 -19 -19 -20 -20 -21 -22 -23 -24 -25 -26 -28 -29 -31 -33
-15 -15 -15 -15 -15 -14 -14 -14 -14 -14 -14 -14 -14 -15 -15 -15 -15 -15 -16 -16 -17 -17 -18 -18 -18 -18 -18 -18 -18 -18 -18 -19 -19 -19 -19 -19 -20 -20 -21 -22 -23 -24 -25 -26 -28 -30 -31 -34 -34
Height
5820 5821 5822 5825 5832 5832 5833 5837 5840 5841 5844 5845 5846 5848 5847 5848 5850 5852 5850 5850 5850 5849 5848 5847 5847 5848 5846 5844 5843 5843 5842 5842 5841 5841 5841 5841 5840 5838 5838 5836 5835 5835 5833 5831 5830 5829 5827 5826 5825
5816 5818 5819 5821 5826 5828 5830 5833 5834 5838 5839 5841 5842 5840 5839 5843 5844 5845 5845 5846 5846 5846 5845 5845 5845 5844 5843 5842 5843 5842 5842 5841 5841 5841 5842 5841 5841 5839 5838 5837 5835 5834 5832 5831 5830 5828 5827 5826 5823
5813 5814 5816 5816 5820 5825 5826 5829 5829 5832 5836 5839 5839 5838 5838 5834 5840 5840 5839 5841 5841 5841 5841 5842 5841 5841 5841 5841 5842 5841 5841 5841 5841 5841 5841 5841 5839 5838 5837 5835 5834 5832 5831 5830 5828 5827 5825 5824 5822
5808 5811 5813 5815 5817 5819 5821 5824 5828 5830 5830 5833 5834 5833 5836 5836 5837 5836 5837 5837 5837 5837 5838 5838 5839 5839 5840 5840 5840 5841 5841 5841 5841 5840 5840 5839 5837 5836 5835 5834 5832 5830 5829 5828 5826 5824 5822 5821 5820
5804 5807 5809 5811 5812 5815 5817 5820 5821 5822 5826 5828 5830 5830 5832 5831 5833 5833 5833 5833 5833 5834 5835 5836 5837 5837 5839 5840 5840 5840 5841 5840 5840 5839 5838 5837 5836 5835 5834 5832 5830 5828 5826 5824 5822 5821 5819 5817 5816
5799 5803 5805 5807 5809 5812 5816 5819 5818 5817 5822 5820 5823 5823 5828 5827 5827 5828 5828 5829 5830 5831 5833 5834 5836 5837 5838 5838 5839 5839 5839 5839 5838 5837 5836 5835 5834 5833 5830 5829 5827 5825 5823 5821 5819 5816 5814 5812 5811
5795 5797 5800 5803 5806 5810 5814 5814 5815 5812 5818 5819 5822 5822 5824 5824 5824 5824 5825 5826 5827 5829 5831 5833 5835 5836 5838 5838 5838 5838 5838 5837 5836 5834 5834 5833 5832 5830 5827 5825 5823 5821 5818 5816 5814 5812 5810 5807 5805
5789 5792 5796 5799 5804 5806 5810 5812 5811 5815 5820 5819 5820 5821 5822 5822 5822 5822 5823 5824 5826 5829 5830 5832 5834 5836 5836 5837 5836 5836 5835 5834 5833 5832 5832 5830 5828 5826 5823 5820 5819 5817 5814 5812 5809 5807 5805 5804 5801
5789 5792 5795 5797 5800 5805 5806 5806 5810 5812 5815 5817 5818 5819 5820 5820 5819 5819 5821 5823 5825 5828 5830 5832 5834 5835 5835 5835 5834 5834 5833 5832 5831 5829 5828 5826 5824 5821 5819 5817 5815 5813 5810 5808 5804 5801 5799 5797 5795
5789 5791 5796 5798 5798 5804 5805 5808 5808 5810 5815 5817 5818 5818 5820 5821 5820 5820 5821 5824 5826 5828 5831 5832 5833 5834 5833 5832 5831 5830 5829 5828 5827 5826 5824 5821 5819 5816 5814 5812 5810 5807 5805 5802 5799 5796 5793 5790 5788
5790 5792 5794 5798 5801 5804 5803 5805 5806 5811 5814 5816 5817 5819 5821 5822 5823 5823 5824 5825 5827 5829 5830 5831 5831 5830 5830 5829 5828 5827 5825 5823 5822 5822 5819 5817 5815 5812 5809 5806 5804 5802 5800 5796 5792 5790 5787 5784 5781
5789 5790 5793 5798 5799 5801 5803 5805 5808 5812 5814 5817 5819 5821 5822 5823 5824 5825 5824 5825 5826 5827 5829 5828 5827 5826 5826 5825 5824 5823 5821 5819 5817 5816 5815 5813 5810 5807 5804 5801 5798 5796 5793 5789 5786 5783 5780 5777 5775
5788 5790 5794 5798 5800 5803 5802 5805 5809 5813 5815 5817 5818 5820 5821 5823 5823 5823 5824 5824 5825 5825 5825 5825 5823 5822 5822 5820 5818 5817 5815 5814 5813 5811 5810 5808 5805 5801 5797 5794 5791 5788 5785 5781 5778 5775 5772 5770 5768
5792 5794 5796 5799 5802 5803 5806 5809 5811 5814 5815 5816 5818 5819 5820 5821 5822 5824 5824 5825 5824 5823 5821 5821 5820 5820 5818 5816 5814 5812 5809 5807 5806 5805 5803 5801 5798 5795 5791 5787 5784 5780 5776 5772 5769 5767 5764 5762 5760
5793 5797 5798 5800 5803 5806 5809 5811 5812 5814 5815 5816 5817 5818 5819 5820 5821 5822 5822 5821 5820 5820 5819 5819 5817 5815 5814 5811 5808 5804 5800 5799 5798 5796 5795 5793 5790 5787 5783 5780 5776 5772 5767 5764 5761 5758 5756 5754 5751
5794 5796 5800 5801 5803 5805 5808 5810 5811 5813 5814 5815 5816 5817 5818 5819 5820 5820 5820 5820 5820 5819 5818 5816 5813 5812 5810 5803 5800 5797 5795 5794 5790 5787 5786 5784 5781 5778 5774 5770 5766 5761 5757 5753 5749 5748 5746 5744 5741
5794 5797 5799 5801 5803 5805 5808 5809 5810 5811 5813 5814 5814 5814 5815 5816 5816 5816 5817 5817 5816 5815 5813 5811 5809 5807 5803 5796 5794 5787 5784 5784 5782 5780 5777 5773 5770 5767 5764 5761 5756 5751 5747 5743 5740 5738 5735 5732 5728
5796 5797 5799 5800 5803 5804 5806 5808 5809 5810 5811 5812 5811 5812 5813 5812 5810 5810 5810 5809 5809 5808 5807 5805 5803 5800 5789 5784 5780 5777 5779 5778 5775 5771 5767 5764 5759 5755 5751 5747 5744 5741 5738 5734 5730 5726 5721 5717 5714
5795 5797 5798 5800 5801 5803 5805 5806 5807 5809 5809 5809 5809 5809 5808 5807 5806 5805 5805 5804 5803 5802 5800 5799 5796 5792 5784 5780 5778 5775 5771 5768 5765 5761 5758 5753 5749 5743 5738 5734 5731 5728 5725 5722 5717 5712 5708 5703 5698
5795 5796 5798 5800 5801 5801 5802 5804 5805 5805 5806 5807 5807 5806 5805 5803 5802 5801 5801 5800 5797 5796 5794 5793 5789 5785 5781 5777 5772 5768 5764 5758 5754 5750 5746 5741 5736 5732 5728 5723 5719 5714 5709 5704 5699 5694 5688 5682 5675
5794 5795 5797 5798 5798 5798 5799 5800 5801 5802 5804 5804 5804 5802 5801 5799 5797 5796 5795 5794 5792 5790 5787 5785 5781 5777 5773 5768 5764 5760 5755 5750 5746 5740 5735 5729 5725 5721 5716 5711 5705 5700 5693 5687 5681 5674 5667 5661 5654
5794 5795 5796 5795 5796 5796 5797 5798 5798 5799 5800 5800 5799 5798 5797 5795 5793 5791 5791 5790 5787 5785 5783 5779 5775 5771 5766 5761 5756 5751 5746 5740 5734 5730 5725 5721 5717 5712 5707 5701 5694 5687 5680 5673 5665 5656 5648 5641 5633
5793 5793 5794 5793 5793 5793 5793 5794 5796 5796 5796 5795 5794 5793 5792 5790 5788 5785 5784 5782 5780 5778 5775 5771 5766 5761 5758 5753 5747 5742 5738 5731 5726 5721 5716 5711 5706 5700 5694 5687 5680 5673 5665 5656 5647 5638 5628 5618 5609
5790 5791 5791 5792 5792 5792 5792 5792 5792 5792 5792 5791 5789 5788 5786 5784 5781 5779 5776 5774 5773 5769 5764 5760 5756 5752 5747 5743 5738 5733 5728 5724 5718 5712 5706 5699 5694 5687 5680 5672 5663 5654 5644 5634 5623 5613 5601 5591 5580
5788 5789 5789 5789 5789 5789 5789 5789 5790 5789 5788 5787 5785 5783 5781 5778 5775 5773 5769 5768 5765 5760 5753 5750 5745 5742 5737 5733 5728 5724 5720 5715 5708 5701 5694 5688 5680 5672 5663 5653 5643 5632 5621 5610 5598 5586 5573 5562 5551
5785 5786 5786 5786 5787 5788 5787 5787 5787 5786 5785 5783 5780 5778 5776 5773 5770 5767 5763 5758 5754 5750 5746 5741 5737 5733 5730 5726 5722 5716 5711 5704 5697 5689 5682 5673 5664 5654 5643 5632 5620 5608 5595 5582 5569 5557 5546 5534 5521
5783 5783 5785 5785 5785 5785 5785 5785 5783 5782 5780 5778 5775 5773 5771 5768 5764 5760 5755 5751 5747 5742 5738 5734 5730 5727 5722 5717 5712 5706 5700 5693 5685 5676 5667 5657 5647 5636 5624 5610 5595 5581 5569 5556 5543 5530 5518 5506 5494
5780 5782 5783 5783 5784 5784 5783 5782 5780 5777 5775 5773 5771 5768 5766 5762 5757 5752 5748 5745 5741 5736 5733 5728 5723 5717 5712 5707 5702 5694 5686 5678 5668 5658 5650 5640 5628 5614 5600 5587 5575 5562 5548 5533 5519 5504 5491 5481 5473
5779 5780 5781 5782 5782 5780 5779 5779 5777 5774 5771 5769 5766 5763 5760 5755 5751 5748 5743 5738 5733 5729 5724 5719 5713 5708 5702 5695 5687 5679 5671 5663 5655 5645 5634 5620 5607 5594 5581 5567 5553 5539 5525 5509 5493 5479 5469 5462 5456
5777 5778 5779 5778 5779 5777 5775 5776 5772 5769 5766 5763 5760 5756 5752 5748 5744 5739 5733 5728 5723 5719 5713 5708 5703 5697 5690 5683 5676 5668 5659 5649 5639 5627 5614 5602 5590 5576 5561 5546 5530 5516 5502 5485 5470 5460 5453 5449 5445
Wind_Speed
29 30 32 29 35 33 33 31 33 29 28 30 29 26 25 25 21 20 18 20 23 27 30 29 25 25 23 18 8 5 3 1 4 5 5 5 5 6 7 8 9 10 10 11 13 14 14 15 14
27 28 31 29 30 32 32 34 33 29 30 28 27 28 25 25 21 17 17 19 24 29 31 29 26 22 17 9 4 2 3 3 2 1 2 3 4 5 7 9 11 12 12 13 14 15 16 17 17
25 32 31 29 35 34 33 30 31 33 32 27 28 30 30 24 19 16 12 19 26 31 29 24 20 17 10 5 4 4 4 3 2 3 4 5 6 8 10 11 13 14 14 16 16 17 18 19 19
34 32 30 22 26 32 32 30 31 27 31 31 31 35 33 32 24 17 18 23 27 27 25 18 14 10 5 6 6 6 5 4 5 6 7 8 10 12 14 16 17 18 19 20 21 22 22 23 23
29 32 26 26 28 28 32 33 33 37 27 30 34 20 30 22 16 18 23 23 22 21 19 14 10 6 8 8 8 7 6 7 8 9 11 12 15 17 19 19 21 22 23 24 24 26 26 27 27
18 29 23 27 26 28 31 33 26 33 30 25 25 22 16 16 18 22 22 19 16 14 13 10 8 11 11 9 8 7 8 9 11 12 14 15 17 19 20 22 23 25 26 27 28 30 30 31 32
19 27 27 28 34 28 26 24 26 35 26 27 21 20 19 20 22 21 19 16 13 11 10 11 13 11 10 9 8 8 10 12 14 15 16 19 21 23 24 24 24 25 24 24 24 26 28 29 29
20 35 28 26 26 26 27 30 18 13 16 10 12 16 19 21 22 19 14 12 10 9 11 12 11 11 9 10 9 11 13 16 16 17 20 22 24 24 25 26 25 24 23 25 26 27 28 28 28
16 19 20 23 21 36 34 33 19 5 5 10 10 15 15 14 13 10 10 9 9 11 12 12 11 10 10 11 13 15 17 18 20 21 21 23 27 30 30 28 26 26 26 28 29 31 31 31 30
24 20 22 26 28 19 27 18 9 12 8 9 9 5 4 3 2 3 6 9 10 10 10 10 9 11 12 14 16 18 19 21 23 24 24 26 30 30 29 29 28 27 27 32 34 34 34 34 33
18 19 16 17 20 6 4 3 15 11 4 1 3 6 6 4 4 6 6 6 6 8 9 9 11 13 15 17 19 20 21 24 25 25 26 27 29 28 29 30 30 29 36 36 35 35 34 33 32
22 21 12 15 4 9 11 13 10 7 6 1 4 7 7 5 4 4 5 7 8 9 9 10 13 15 17 19 21 22 24 26 27 26 24 27 28 29 30 32 35 36 35 38 38 36 34 33 31
28 4 8 2 5 8 12 11 5 0 4 6 7 8 6 5 5 4 5 7 6 7 10 12 15 18 20 23 25 26 26 27 26 26 25 28 29 31 35 36 37 39 39 39 39 36 33 31 31
9 7 5 4 4 5 3 0 2 5 7 6 7 7 8 7 4 1 2 4 8 11 14 18 19 21 23 26 27 28 28 29 26 22 25 33 32 33 34 38 41 44 43 41 38 36 35 33 31
4 10 5 4 5 5 6 9 10 11 11 9 9 11 10 7 3 3 6 10 12 14 17 20 23 22 24 26 28 30 30 27 27 26 31 35 36 37 40 40 44 46 44 41 39 37 36 37 38
3 9 6 7 8 11 11 12 11 11 14 14 11 11 9 8 9 11 12 13 14 17 21 23 24 20 23 29 25 30 24 25 30 35 39 40 39 42 42 47 47 47 45 42 40 41 41 42 43
9 12 7 10 13 12 12 13 14 16 11 5 8 11 10 12 13 15 15 14 15 17 18 18 19 21 25 29 29 31 28 26 36 37 45 47 48 49 49 48 47 44 42 41 40 41 43 47 50
17 14 14 13 12 12 12 13 10 7 8 8 12 13 12 12 13 15 16 18 20 22 23 21 18 21 31 28 37 42 44 46 45 44 52 52 53 54 53 51 47 42 39 41 45 50 54 56 58
18 15 14 15 14 12 12 9 5 6 7 10 12 13 14 14 14 18 20 22 23 23 21 22 23 29 37 40 44 50 53 54 57 55 54 55 56 55 54 50 46 44 46 50 54 58 63 65 66
20 19 16 12 12 8 8 7 4 4 5 7 11 13 15 17 19 22 22 24 25 23 17 28 33 37 41 44 48 48 51 54 55 56 58 58 56 54 50 48 50 53 58 62 66 69 72 75 78
22 25 22 12 9 7 7 8 9 9 10 13 15 16 18 21 24 27 24 24 26 28 33 38 42 42 44 47 48 48 54 55 56 56 55 54 52 50 52 57 62 64 68 72 75 78 81 82 82
18 20 17 10 10 11 12 14 12 14 16 18 20 22 22 24 29 32 31 28 30 31 35 40 41 45 49 51 49 53 57 55 53 53 50 49 51 55 59 63 66 69 74 77 81 84 84 85 86
13 9 9 10 12 14 16 18 16 19 21 23 25 25 25 25 28 32 32 30 33 37 40 44 48 50 45 46 48 50 55 53 51 50 51 54 57 60 63 67 71 74 77 80 82 84 87 89 90
12 13 13 13 14 16 18 20 18 18 17 17 20 23 25 29 28 30 31 33 35 39 42 44 42 45 37 41 45 49 52 47 47 51 55 58 61 64 67 70 74 79 82 85 88 90 91 92 93
15 14 14 15 14 13 13 13 10 11 14 17 20 23 25 27 30 31 34 30 40 45 45 48 60 42 38 43 47 46 45 47 50 54 58 60 64 67 72 78 81 85 89 92 93 93 95 95 95
15 14 12 10 9 7 7 8 7 5 7 10 13 15 18 20 24 26 28 36 41 45 47 48 44 38 41 40 41 43 46 50 54 57 61 66 71 76 81 85 88 91 93 94 95 96 97 97 97
12 11 8 5 4 5 4 6 8 10 13 15 17 18 18 21 25 29 33 36 39 41 44 43 44 41 39 42 44 47 51 54 58 62 68 74 79 82 86 90 93 95 97 97 98 99 101 98 90
12 10 8 6 5 5 7 10 13 14 17 18 21 23 23 26 29 33 34 34 35 37 37 35 36 41 43 45 48 52 56 59 65 71 76 80 83 88 93 95 96 97 98 98 98 99 90 79 67
12 10 9 9 8 10 10 11 14 17 19 21 24 27 29 30 30 31 33 35 35 34 35 38 41 43 47 51 54 58 61 66 71 76 81 85 89 93 96 99 100 99 99 100 94 81 70 56 54
14 12 12 12 13 15 16 16 19 21 22 25 28 31 33 34 36 38 38 38 39 41 43 45 47 49 52 55 59 61 66 72 77 82 86 90 93 97 99 101 100 99 99 89 75 65 54 45 47
Wind_Direction
245 250 250 246 251 238 241 240 241 238 238 238 240 245 241 236 239 255 264 274 286 297 299 298 294 303 303 304 300 292 316 94 73 55 56 49 34 19 1 350 346 345 343 341 336 334 333 331 334
238 243 251 242 240 247 241 240 236 233 237 234 232 232 241 242 234 246 261 272 284 297 299 296 300 303 298 283 260 232 169 131 95 48 3 9 355 346 331 326 327 325 326 321 319 319 318 317 322
230 238 242 250 243 242 233 230 231 229 232 234 242 250 245 216 229 236 255 284 292 297 298 301 296 290 273 239 196 179 164 170 223 285 297 302 304 305 304 303 302 305 304 304 305 306 306 305 308
232 240 244 248 252 242 227 215 222 227 226 231 241 245 250 243 244 269 281 291 293 295 299 294 285 269 218 183 174 161 180 215 256 275 284 290 296 297 294 294 297 296 296 296 295 295 297 300 300
236 239 242 248 235 235 221 220 222 223 219 238 243 248 233 227 237 294 300 291 285 292 287 275 263 202 175 167 173 188 216 247 263 275 289 296 299 299 299 300 297 295 295 293 294 295 295 294 293
241 232 233 240 229 228 219 219 226 226 225 254 252 260 277 286 310 302 296 285 280 273 263 252 198 168 174 187 201 219 240 258 275 287 290 296 297 297 298 297 295 296 295 296 297 296 295 294 293
247 225 224 230 223 224 220 227 235 234 243 256 279 279 306 320 310 300 289 283 274 258 241 197 172 181 195 210 223 240 258 272 279 281 290 293 297 301 300 297 299 297 297 298 301 301 301 299 298
216 212 210 228 208 223 210 221 227 201 234 242 331 314 312 304 301 293 274 266 255 233 193 171 180 198 213 234 249 259 265 268 274 286 292 299 301 304 297 297 299 295 295 299 300 300 298 296 296
191 201 207 203 224 218 224 229 270 166 6 343 322 307 308 303 292 260 237 233 208 186 170 181 199 220 239 257 264 270 273 280 286 289 294 299 304 303 301 299 297 299 302 302 301 299 298 296 292
198 214 203 214 231 228 234 226 210 29 1 345 309 306 288 282 44 125 159 171 161 166 186 207 229 248 259 269 274 275 278 286 292 296 298 301 301 301 303 304 304 301 301 302 299 297 295 294 292
209 222 218 224 228 227 226 155 33 10 15 359 251 170 178 166 135 123 140 160 180 206 226 241 259 261 266 267 269 278 287 290 290 291 293 299 304 305 304 305 302 301 301 299 297 294 292 289 288
202 210 185 215 259 69 70 56 36 66 104 142 197 191 184 184 186 185 203 214 227 237 248 251 259 267 269 274 276 277 279 281 284 282 297 304 302 301 300 298 299 301 299 300 299 297 294 291 289
215 180 225 83 101 66 47 23 31 78 216 207 210 197 193 205 227 232 227 238 262 268 269 267 267 272 273 276 280 281 279 281 288 280 294 304 301 297 299 298 301 302 300 299 297 296 295 293 293
101 154 164 151 97 86 41 186 189 215 235 222 210 200 207 221 216 225 225 247 262 271 280 283 282 279 284 287 289 282 278 275 277 276 288 302 301 300 300 301 301 300 298 295 293 290 290 289 290
137 156 164 198 200 217 200 189 199 217 229 230 224 218 219 228 227 218 253 268 276 277 278 274 276 281 283 285 282 274 265 260 263 293 307 304 304 301 300 300 299 297 296 292 289 289 288 288 289
249 168 199 216 190 190 186 200 207 209 221 220 225 237 235 226 213 213 226 244 256 265 268 278 282 287 288 292 286 280 275 288 312 313 310 305 302 304 301 301 299 297 294 294 295 297 298 298 298
171 183 203 197 179 190 195 186 203 213 210 249 242 245 238 229 225 231 237 254 271 281 286 291 284 288 283 277 270 300 311 302 307 304 304 308 307 305 300 299 300 297 294 294 294 293 294 296 295
173 180 180 192 195 200 198 192 193 195 226 238 247 252 252 249 258 270 277 289 294 299 297 295 288 293 276 301 301 313 311 308 306 305 307 307 306 305 304 304 302 296 293 293 295 298 299 298 296
197 197 204 208 200 200 201 211 202 219 222 233 258 270 271 275 291 293 299 301 300 295 297 297 291 278 294 305 306 305 306 309 309 308 306 307 306 306 306 304 300 299 299 298 298 298 298 297 296
202 203 210 205 204 196 222 221 223 249 282 276 281 289 296 301 293 289 295 297 294 294 295 276 285 297 298 299 302 303 308 306 304 305 306 307 306 306 304 301 302 303 303 302 302 301 300 299 298
206 209 214 213 230 254 279 296 299 296 297 295 298 299 295 291 286 285 288 294 290 286 290 294 301 300 297 296 296 298 307 307 305 304 305 307 308 308 307 307 305 303 303 303 302 300 299 298 298
225 212 213 239 256 272 280 292 293 299 303 304 299 293 290 285 281 282 283 284 283 286 291 299 295 289 292 293 294 301 305 306 307 307 306 306 305 303 301 300 300 300 299 299 298 298 298 298 297
218 221 238 257 276 286 290 292 301 300 300 296 292 291 287 291 289 293 289 281 285 293 296 295 287 288 294 296 293 293 301 307 306 304 304 302 301 301 302 301 300 300 300 300 300 300 299 299 299
235 239 247 254 264 274 287 293 306 303 297 297 294 294 294 299 297 293 289 282 287 290 294 299 302 302 296 292 297 300 299 300 298 298 298 300 301 301 302 303 306 308 307 306 304 303 302 302 300
239 241 253 265 275 284 292 300 317 308 304 302 300 299 296 293 293 294 294 294 286 280 292 289 295 304 295 296 298 292 292 294 297 298 300 302 303 306 308 310 310 310 310 309 308 306 304 303 301
246 253 254 261 276 291 295 321 330 340 335 322 310 304 302 301 299 295 287 280 283 287 289 293 295 296 293 291 289 291 294 295 298 300 303 306 309 311 312 313 312 311 311 310 308 307 305 304 302
229 231 235 241 257 289 311 336 354 348 346 348 344 340 334 321 314 305 298 292 289 288 287 285 286 288 289 292 293 295 296 298 300 304 309 311 312 312 313 313 313 312 311 309 308 307 306 303 301
219 210 205 230 257 265 304 317 336 333 340 340 339 336 330 329 327 321 314 307 301 295 293 294 292 293 293 294 297 298 300 304 310 312 311 310 311 313 314 312 311 310 310 309 308 306 304 302 303
207 213 224 238 264 302 318 322 323 325 330 331 332 335 334 331 328 322 314 309 307 302 298 296 295 297 299 300 304 306 307 309 309 310 311 312 314 312 311 311 312 312 311 311 309 305 306 306 302
219 227 240 257 286 301 309 314 318 317 323 328 330 330 329 329 327 327 325 317 309 305 305 303 302 302 304 306 305 306 308 309 310 311 313 313 311 311 311 312 312 311 312 312 309 309 308 306 308